This demonstration page uses our WeatherBlox Daily Observations layout. Learn more.

Left ArrowRight Arrow

53.62937, 11.41316

Hourly Observations for January 7, 2018

Temp ( °F °C ) Dew Point ( °F °C ) Humidity (%) Winds ( mph kmh ) Pressure ( in mb ) Visibility ( mi km ) Precip ( " mm )
6:50 am 06:50 Mostly Clear 32 0 28 -2 87 87 NNE 9 15 30.33 1027 7 11 N/A
7:20 am 07:20 Mostly Clear 32 0 28 -2 87 87 NE 8 13 30.36 1028 7 11 N/A
7:50 am 07:50 Mostly Clear 32 0 28 -2 87 87 NE 7 11 30.36 1028 7 11 N/A
8:20 am 08:20 Mostly Clear 32 0 28 -2 87 87 NE 7 11 30.39 1029 7 11 N/A
8:50 am 08:50 Mostly Sunny 30 -1 28 -2 93 93 NNE 5 7 30.39 1029 7 11 N/A
9:20 am 09:20 Mostly Sunny 30 -1 27 -3 86 86 N 5 7 30.42 1030 7 11 N/A
9:50 am 09:50 Mostly Sunny 30 -1 28 -2 93 93 VRB 2 4 30.42 1030 7 11 N/A
10:20 am 10:20 Mostly Sunny 30 -1 28 -2 93 93 VRB 1 2 30.45 1031 7 11 N/A
10:50 am 10:50 Mostly Sunny 34 1 28 -2 81 81 VRB 1 2 30.48 1032 7 11 N/A
11:20 am 11:20 Mostly Sunny 34 1 30 -1 87 87 NE 6 9 30.48 1032 7 11 N/A
11:50 am 11:50 Mostly Sunny 36 2 30 -1 81 81 NE 8 13 30.48 1032 7 11 N/A
12:20 pm 12:20 Mostly Sunny 36 2 30 -1 81 81 NE 9 15 30.48 1032 7 11 N/A
12:50 pm 12:50 Mostly Sunny 36 2 28 -2 75 75 ENE 9 15 30.48 1032 7 11 N/A
1:20 pm 13:20 Mostly Sunny 36 2 27 -3 70 70 NE 10 17 30.48 1032 7 11 N/A
1:50 pm 13:50 Mostly Sunny 36 2 27 -3 70 70 ENE 10 17 30.48 1032 7 11 N/A
2:20 pm 14:20 Mostly Sunny 36 2 27 -3 70 70 NE 8 13 30.48 1032 7 11 N/A
2:50 pm 14:50 Mostly Sunny 36 2 28 -2 75 75 NE 9 15 30.48 1032 7 11 N/A
3:20 pm 15:20 Mostly Sunny 36 2 30 -1 81 81 NE 9 15 30.50 1033 7 11 N/A
3:50 pm 15:50 Mostly Sunny 34 1 28 -2 81 81 NE 6 9 30.50 1033 7 11 N/A
4:20 pm 16:20 Mostly Clear 32 0 30 -1 93 93 ENE 5 7 30.50 1033 7 11 N/A
4:50 pm 16:50 Mostly Clear 30 -1 27 -3 86 86 E 3 6 30.50 1033 7 11 N/A
5:20 pm 17:20 Mostly Clear 30 -1 27 -3 86 86 ENE 3 6 30.50 1033 7 11 N/A
5:50 pm 17:50 Mostly Clear 28 -2 27 -3 93 93 ENE 3 6 30.50 1033 7 11 N/A
6:20 pm 18:20 Mostly Clear 28 -2 27 -3 93 93 ENE 3 6 30.53 1034 7 11 N/A

Powered by AerisWeather